WAT3630 UBBB-VOHS

Flight info

Callsign WAT3630
Flight time N/A
Altitude 37000
Route NAMAS N41 DUKAN B449 RANAH L750 ZB G202 RK P628 VIKIT Z8 ABVUL Z9 KLONG/N0466F390 Z9 UUD L518 LUTGU DCT SUSMA BINAT6
Aircraft A346/H-SDE2E3FGHIJ3J4J5M1RWXY/LB1D1

Departure

Time N/A
Airport Heydar Aliyev International Airport (UBBB)

Arrival

Time 2026-04-12 02:51
Airport Rajiv Gandhi International Airport (VOHS)
Time Latitude Longitude Altitude Speed Heading
2026-04-12 02:25 19.08001 77.42606 38920 ft 487 kts 160°
2026-04-12 02:25 19.04797 77.43867 38924 ft 486 kts 163°
2026-04-12 02:26 18.98314 77.45735 38919 ft 483 kts 171°
2026-04-12 02:26 18.91645 77.46774 38915 ft 481 kts 178°
2026-04-12 02:27 18.84987 77.47078 38917 ft 479 kts 181°
2026-04-12 02:27 18.78324 77.47274 38919 ft 479 kts 181°
2026-04-12 02:28 18.71654 77.47481 38919 ft 479 kts 180°
2026-04-12 02:28 18.64973 77.47694 38922 ft 479 kts 180°
2026-04-12 02:29 18.58292 77.47908 38924 ft 479 kts 180°
2026-04-12 02:29 18.51654 77.48122 38550 ft 476 kts 180°
2026-04-12 02:30 18.48349 77.48230 37603 ft 481 kts 180°
2026-04-12 02:30 18.44957 77.48338 36511 ft 488 kts 180°
2026-04-12 02:30 18.41532 77.48447 35547 ft 491 kts 180°
2026-04-12 02:30 18.38122 77.48558 34694 ft 492 kts 180°
2026-04-12 02:31 18.34711 77.48668 33840 ft 493 kts 180°
2026-04-12 02:31 18.31284 77.48779 32935 ft 495 kts 180°
2026-04-12 02:31 18.27800 77.48891 32049 ft 497 kts 180°
2026-04-12 02:31 18.24350 77.49003 31159 ft 500 kts 180°
2026-04-12 02:32 18.20880 77.49115 30239 ft 503 kts 180°
2026-04-12 02:32 18.17353 77.49229 29284 ft 506 kts 180°
2026-04-12 02:32 18.13839 77.49345 28401 ft 507 kts 180°
2026-04-12 02:32 18.10324 77.49461 27701 ft 504 kts 180°
2026-04-12 02:33 18.06848 77.49577 27176 ft 497 kts 180°
2026-04-12 02:33 18.03387 77.49696 26721 ft 490 kts 180°
2026-04-12 02:33 18.00008 77.49809 26232 ft 485 kts 180°
2026-04-12 02:33 17.96629 77.49921 25679 ft 480 kts 179°
2026-04-12 02:34 17.93356 77.50473 25040 ft 481 kts 162°
2026-04-12 02:34 17.90414 77.52125 24477 ft 480 kts 142°
2026-04-12 02:34 17.88161 77.54648 23979 ft 475 kts 127°
2026-04-12 02:34 17.86241 77.57430 23462 ft 471 kts 125°
2026-04-12 02:35 17.84329 77.60248 22887 ft 467 kts 125°
2026-04-12 02:35 17.82427 77.62977 22358 ft 463 kts 126°
2026-04-12 02:35 17.80509 77.65655 21840 ft 459 kts 127°
2026-04-12 02:35 17.78581 77.68308 21299 ft 455 kts 127°
2026-04-12 02:36 17.76666 77.70915 20748 ft 452 kts 127°
2026-04-12 02:36 17.74731 77.73527 20173 ft 450 kts 127°
2026-04-12 02:36 17.72820 77.76095 19691 ft 445 kts 127°
2026-04-12 02:36 17.70949 77.78603 19260 ft 439 kts 127°
2026-04-12 02:37 17.69064 77.81126 19022 ft 428 kts 127°
2026-04-12 02:37 17.67277 77.83521 19005 ft 412 kts 127°
2026-04-12 02:37 17.65552 77.85832 19001 ft 396 kts 127°
2026-04-12 02:37 17.63871 77.88084 18998 ft 381 kts 127°
2026-04-12 02:38 17.62289 77.90202 18998 ft 366 kts 127°
2026-04-12 02:38 17.60734 77.92279 18999 ft 351 kts 127°
2026-04-12 02:38 17.59256 77.94252 18995 ft 339 kts 127°
2026-04-12 02:38 17.57829 77.96169 18779 ft 337 kts 127°
2026-04-12 02:39 17.56379 77.98135 18249 ft 341 kts 126°
2026-04-12 02:39 17.54935 78.00100 17800 ft 342 kts 126°
2026-04-12 02:39 17.53482 78.02078 17434 ft 340 kts 126°
2026-04-12 02:39 17.52043 78.04037 17093 ft 338 kts 126°
2026-04-12 02:40 17.50633 78.05959 16761 ft 335 kts 126°
2026-04-12 02:40 17.49213 78.07894 16416 ft 333 kts 126°
2026-04-12 02:40 17.47803 78.09813 16075 ft 331 kts 126°
2026-04-12 02:40 17.46408 78.11712 15733 ft 329 kts 126°
2026-04-12 02:41 17.45004 78.13622 15396 ft 327 kts 126°
2026-04-12 02:41 17.43628 78.15493 15084 ft 325 kts 126°
2026-04-12 02:41 17.42251 78.17366 14754 ft 323 kts 126°
2026-04-12 02:41 17.40888 78.19221 14426 ft 321 kts 126°
2026-04-12 02:42 17.39530 78.21069 14110 ft 319 kts 126°
2026-04-12 02:42 17.38181 78.22904 13794 ft 317 kts 126°
2026-04-12 02:42 17.36842 78.24727 13468 ft 315 kts 126°
2026-04-12 02:43 17.34190 78.28326 12793 ft 312 kts 126°
2026-04-12 02:43 17.32869 78.30118 12440 ft 311 kts 126°
2026-04-12 02:43 17.31631 78.31955 12059 ft 309 kts 114°
2026-04-12 02:43 17.31054 78.34085 11687 ft 304 kts 91°
2026-04-12 02:44 17.31071 78.36258 11457 ft 296 kts 85°
2026-04-12 02:44 17.31155 78.38412 11238 ft 290 kts 85°
2026-04-12 02:44 17.31225 78.40472 11034 ft 284 kts 86°
2026-04-12 02:44 17.31280 78.42529 10801 ft 280 kts 86°
2026-04-12 02:45 17.31325 78.44569 10556 ft 276 kts 86°
2026-04-12 02:45 17.31366 78.46555 10319 ft 272 kts 86°
2026-04-12 02:45 17.31404 78.48499 10084 ft 268 kts 86°
2026-04-12 02:45 17.31442 78.50428 9829 ft 265 kts 86°
2026-04-12 02:46 17.31480 78.52361 9524 ft 264 kts 85°
2026-04-12 02:46 17.31518 78.54254 9222 ft 263 kts 85°
2026-04-12 02:46 17.31555 78.56169 8941 ft 261 kts 86°
2026-04-12 02:46 17.31590 78.58057 8667 ft 259 kts 85°
2026-04-12 02:47 17.31621 78.59924 8394 ft 257 kts 89°
2026-04-12 02:47 17.31181 78.61741 8091 ft 260 kts 122°
2026-04-12 02:47 17.29821 78.62922 7909 ft 256 kts 161°
2026-04-12 02:47 17.28103 78.63186 7776 ft 248 kts 180°
2026-04-12 02:48 17.26363 78.63152 7483 ft 249 kts 181°
2026-04-12 02:48 17.24616 78.63137 7129 ft 252 kts 180°
2026-04-12 02:48 17.22873 78.62825 6445 ft 265 kts 206°
2026-04-12 02:48 17.21428 78.61633 5754 ft 270 kts 236°
2026-04-12 02:49 17.20699 78.59817 5073 ft 273 kts 265°
2026-04-12 02:49 17.20857 78.57860 4418 ft 274 kts 285°
2026-04-12 02:49 17.21416 78.55982 3942 ft 266 kts 289°
2026-04-12 02:49 17.22015 78.54200 3644 ft 254 kts 289°
2026-04-12 02:50 17.22586 78.52503 3335 ft 244 kts 286°
2026-04-12 02:50 17.22930 78.50822 3052 ft 232 kts 276°
2026-04-12 02:50 17.23008 78.49175 2754 ft 221 kts 268°
2026-04-12 02:50 17.22958 78.47610 2486 ft 209 kts 266°
2026-04-12 02:51 17.22927 78.46143 2231 ft 198 kts 268°
2026-04-12 02:51 17.22909 78.44735 2054 ft 183 kts 266°
2026-04-12 02:51 17.22871 78.43612 2032 ft 119 kts 269°
2026-04-12 02:51 17.22858 78.43014 2012 ft 45 kts 270°
2026-04-12 02:52 17.22868 78.42807 2003 ft 22 kts 274°
2026-04-12 02:52 17.22877 78.42696 1999 ft 18 kts 275°
2026-04-12 02:53 17.22880 78.42674 1998 ft 11 kts 281°
2026-04-12 02:53 17.22946 78.42537 1993 ft 20 kts 304°
2026-04-12 02:54 17.23033 78.42401 1988 ft 24 kts 301°
2026-04-12 02:54 17.23138 78.42252 1982 ft 27 kts 319°
2026-04-12 02:54 17.23249 78.42117 1976 ft 23 kts 295°
2026-04-12 02:54 17.23366 78.42036 1972 ft 10 kts 349°
2026-04-12 02:55 17.23376 78.42034 1972 ft 0 kts 349°